[[{"header":{"parameterUnit":"m.s-1","parameterCategory":1,"la1":30.2991,"la2":30.254,"lo1":-89.0895,"lo2":-89.0444,"dy":0.0017,"dx":0.0017,"nx":28,"ny":28,"refTime":"2025-05-20T03:00:00:Z","depth":0,"parameterNumber":2,"parameterNumberName":"U-component_of_WINDS"},"data":[0,0,0,0,0,0,0,0,0,0,0,0,0,0,0,0,0,0,0,0,0,0,0,0,0,0,0,0,0,0,0,0,0,0,0,0,0,0,0,0,0,0,0,0,0,0,0,0,0,0,0,0,0,0,0,0,0,0,3.499,3.4991,0,3.5018,3.5018,3.5019,3.4945,3.4942,3.494,3.4938,3.4965,3.4967,3.497,0,0,0,0,0,0,0,0,0,0,0,0,0,3.4871,3.4873,3.499,3.4991,3.4991,3.5018,3.5018,3.5019,3.4945,3.4942,3.494,3.4937,3.4964,3.4967,3.497,0,0,0,0,0,0,0,0,0,0,0,0,0,3.4913,3.4874,3.499,3.4958,3.4955,3.5018,3.5019,3.5019,3.4946,3.4942,3.4939,3.4936,3.4963,3.4967,3.4971,3.5066,0,0,3.4984,3.4986,0,0,0,0,0,0,0,0,3.4911,3.4918,3.4962,3.496,3.4957,3.4975,3.4986,3.5035,3.4947,3.4949,3.4938,3.4934,3.4971,3.4974,3.4987,3.5068,3.5069,3.4984,3.4987,3.4989,3.499,0,0,0,0,0,0,0,3.4908,3.4916,3.5001,3.4963,3.496,3.4941,3.4943,3.4995,3.4979,3.4949,3.4943,3.4948,3.4968,3.4983,3.4987,3.5069,3.4984,3.4988,3.4991,3.4992,3.5227,3.5231,0,0,0,0,0,0,3.491,3.4914,3.5,3.5002,3.4925,3.4946,3.4948,3.4972,3.4978,3.4976,3.4951,3.4944,3.4977,3.4982,3.4987,3.5097,3.4989,3.4993,3.4995,3.5224,3.5228,3.5232,0,0,0,0,0,0,3.4907,3.4918,3.4999,3.4957,3.4966,3.4951,3.4979,3.4975,3.4989,3.498,3.4976,3.4968,3.4975,3.4981,3.5047,3.5097,3.4995,3.4999,3.5219,3.5225,3.523,3.532,0,0,0,0,0,0,3.4904,3.4918,3.4954,3.4958,3.4968,3.5059,3.4982,3.4978,3.4997,3.4988,3.4995,3.4993,3.4972,3.5041,3.5051,3.5101,3.5002,3.5215,3.5222,3.5228,3.5312,3.5328,3.5341,0,0,0,0,0,3.49,3.4979,3.4957,3.4968,3.5014,3.5062,3.5068,3.5043,3.5001,3.5037,3.5031,3.4993,3.5091,3.5048,3.5059,3.5112,3.5211,3.522,3.5228,3.5306,3.5325,3.5341,0,0,0,0,0,0,3.4981,3.4979,3.4954,3.5036,3.505,3.505,3.5095,3.5064,3.509,3.5081,3.5049,3.5051,3.5122,3.5123,3.5076,3.5203,3.5144,3.5155,3.5199,3.5217,3.5231,3.5229,3.5005,0,0,0,0,0,3.5008,3.5049,3.5044,3.5117,3.5125,3.5109,3.513,3.5109,3.5122,3.5127,3.5126,3.5139,3.5172,3.5195,3.5226,3.5313,3.5312,3.5354,3.5369,3.538,3.539,3.5434,3.5452,3.5259,3.5259,3.5259,0,0,3.5065,3.5069,3.5096,3.5133,3.5142,3.5183,3.5115,3.5162,3.5191,3.5134,3.5195,3.5195,3.5208,3.5284,3.5317,3.5287,3.5443,3.5391,3.5401,3.5403,3.5444,3.5462,3.5478,3.5265,3.5264,3.5263,0,0,3.5189,3.5198,3.5258,3.5268,3.5281,3.527,3.5285,3.5289,3.5286,3.5348,3.5305,3.534,3.5399,3.5409,3.5422,3.555,3.5514,3.5561,3.5635,3.5678,3.5693,3.5707,3.575,3.5766,3.557,3.557,3.5571,0,3.5258,3.5319,3.5293,3.5342,3.5359,3.531,3.537,3.5381,3.5404,3.5416,3.5382,3.5454,3.5459,3.5536,3.5567,3.558,3.5594,3.5559,3.5694,3.5707,3.5718,3.5759,3.5776,3.5576,3.5575,3.5575,3.5574,0,3.5402,3.5445,3.5492,3.5515,3.5538,3.5593,3.5573,3.5599,3.5577,3.5569,3.5631,3.5635,3.5665,3.5682,3.5661,3.5756,3.5737,3.5699,3.5638,3.5743,3.578,3.5796,3.5583,3.5581,3.558,3.5579,0,0,3.5576,3.5584,3.5602,3.5611,3.5623,3.5655,3.5707,3.5736,3.5758,3.5776,3.5817,3.5868,3.5833,3.5848,3.5827,3.5866,3.5964,3.5823,3.5823,3.5847,3.6066,3.6093,3.6112,3.5942,3.5945,3.5947,3.6064,0,3.5697,3.5787,3.5764,3.5852,3.5891,3.5845,3.589,3.5901,3.5895,3.5926,3.5919,3.5955,3.5907,3.5915,3.5951,3.5945,3.6007,3.5936,3.5978,3.598,3.5974,3.6132,3.616,3.6271,3.6079,3.6082,3.6084,0,3.5849,3.5873,3.5965,3.5969,3.5984,3.6025,3.605,3.6081,3.6092,3.6085,3.6101,3.6073,3.6123,3.6064,3.6131,3.6083,3.6099,3.6099,3.6102,3.6103,3.6037,3.6135,3.6306,3.6321,3.6107,3.6105,3.6104,0,3.5964,3.6019,3.6081,3.6091,3.6098,3.6127,3.6131,3.6139,3.6158,3.6179,3.6191,3.6218,3.6232,3.6253,3.6233,3.6192,3.6303,3.6242,3.6296,3.6297,3.632,3.6318,3.6493,3.6335,3.6334,3.6334,3.6334,0,3.61,3.6158,3.6133,3.617,3.6233,3.6207,3.6269,3.6268,3.6276,3.6311,3.6274,3.6308,3.628,3.6311,3.6296,3.6353,3.636,3.6354,3.6349,3.6357,3.6357,3.6365,3.6356,3.6338,3.6338,3.6337,3.6336,0,3.6238,3.6224,3.6288,3.6289,3.6291,3.6337,3.6337,3.6372,3.6363,3.6409,3.6418,3.6404,3.6439,3.6422,3.6458,3.6447,3.652,3.6506,3.6517,3.6512,3.6566,3.6561,3.6751,3.6773,3.6602,3.6604,3.6606,0,3.6324,3.6368,3.6374,3.6395,3.6402,3.6437,3.6456,3.6432,3.6453,3.6469,3.6501,3.6533,3.6557,3.6615,3.6608,3.6635,3.6619,3.6684,3.6623,3.6629,3.6617,3.6614,3.6617,3.6696,3.6698,3.6699,3.6701,0,3.6478,3.6469,3.6498,3.6525,3.6548,3.6568,3.6585,3.6604,3.658,3.6606,3.6641,3.666,3.6697,3.6729,3.6752,3.6755,3.6723,3.672,3.6734,3.6741,3.6744,3.674,3.6547,3.6715,3.6714,3.6713,3.6712,3.6711,3.6591,3.6627,3.6636,3.6669,3.668,3.6696,3.6727,3.6723,3.6753,3.6781,3.6765,3.6806,3.6815,3.6844,3.6851,3.6882,3.6856,3.6877,3.6881,3.6886,3.6892,3.6741,3.6887,3.6886,3.6886,3.6886,3.6885,0,3.674,3.6745,3.6776,3.68,3.6826,3.6795,3.6812,3.6835,3.6872,3.6884,3.6908,3.6948,3.6979,3.6974,3.7002,3.7027,3.7013,3.7035,3.7032,3.7032,3.6915,3.69,3.7046,3.7046,3.7046,3.7046,3.7046,3.7046,3.6821,3.6879,3.6871,3.6933,3.6937,3.6977,3.6989,3.7003,3.7012,3.7059,3.7084,3.7081,3.7086,3.7113,3.7139,3.7137,3.7148,3.7175,3.7167,3.7057,3.7041,3.7026,3.7011,3.7178,3.7178,3.7281,3.7282,3.7283]},{"header":{"parameterUnit":"m.s-1","parameterCategory":1,"la1":30.2991,"la2":30.254,"lo1":-89.0895,"lo2":-89.0444,"dy":0.0017,"dx":0.0017,"nx":28,"ny":28,"refTime":"2025-05-20T03:00:00:Z","depth":0,"parameterNumber":3,"parameterNumberName":"V-component_of_WINDS"},"data":[0,0,0,0,0,0,0,0,0,0,0,0,0,0,0,0,0,0,0,0,0,0,0,0,0,0,0,0,0,0,0,0,0,0,0,0,0,0,0,0,0,0,0,0,0,0,0,0,0,0,0,0,0,0,0,0,0,0,6.5996,6.5997,0,6.6143,6.6145,6.6146,6.6135,6.6133,6.613,6.6128,6.6272,6.6278,6.6284,0,0,0,0,0,0,0,0,0,0,0,0,0,6.5696,6.5701,6.5995,6.5997,6.5999,6.6143,6.6145,6.6147,6.6135,6.6132,6.613,6.6127,6.627,6.6277,6.6284,0,0,0,0,0,0,0,0,0,0,0,0,0,6.5832,6.5703,6.5995,6.6011,6.6014,6.6142,6.6145,6.6147,6.6136,6.6132,6.6129,6.6126,6.6268,6.6277,6.6285,6.6406,0,0,6.6312,6.6316,0,0,0,0,0,0,0,0,6.5825,6.5843,6.6007,6.601,6.6013,6.6117,6.6092,6.6234,6.6136,6.6089,6.6128,6.6124,6.6223,6.6235,6.627,6.6413,6.6419,6.6313,6.6318,6.6322,6.6325,0,0,0,0,0,0,0,6.5815,6.5837,6.6054,6.6009,6.6013,6.6008,6.6024,6.6119,6.6172,6.6093,6.6093,6.6111,6.6224,6.6261,6.6273,6.6421,6.6313,6.6321,6.6326,6.633,6.6667,6.6671,0,0,0,0,0,0,6.5803,6.5829,6.6049,6.6058,6.5909,6.6016,6.6034,6.6087,6.6171,6.6181,6.6113,6.6109,6.6248,6.6263,6.6278,6.6424,6.6322,6.633,6.6335,6.6663,6.6668,6.6672,0,0,0,0,0,0,6.5797,6.5823,6.6043,6.5944,6.5971,6.6025,6.6085,6.6092,6.6129,6.6187,6.6196,6.6142,6.6246,6.6266,6.6374,6.6429,6.6334,6.6342,6.6659,6.6665,6.667,6.6716,0,0,0,0,0,0,6.5788,6.5821,6.5869,6.5945,6.5977,6.6139,6.6088,6.6097,6.6145,6.6142,6.6216,6.6225,6.6245,6.6361,6.6383,6.6439,6.6349,6.6654,6.6662,6.6668,6.671,6.6723,6.6733,0,0,0,0,0,6.5778,6.5875,6.5872,6.5898,6.6039,6.6142,6.616,6.6183,6.615,6.6197,6.6234,6.6223,6.6419,6.6372,6.6397,6.6456,6.6651,6.666,6.6668,6.6705,6.672,6.6733,0,0,0,0,0,0,6.5802,6.5886,6.5883,6.6008,6.6069,6.614,6.6201,6.6198,6.6268,6.6261,6.6284,6.6301,6.641,6.6444,6.639,6.6576,6.653,6.6544,6.655,6.6565,6.6577,6.6566,6.6357,0,0,0,0,0,6.5823,6.5903,6.597,6.6074,6.6105,6.6148,6.6194,6.6206,6.6268,6.6293,6.6338,6.6397,6.6471,6.652,6.6592,6.6715,6.6729,6.6767,6.6779,6.6788,6.68,6.6865,6.6882,6.6699,6.6699,6.6699,0,0,6.5865,6.592,6.5969,6.608,6.6129,6.6208,6.6169,6.6255,6.6314,6.6305,6.6411,6.6446,6.6512,6.6628,6.6681,6.666,6.6853,6.6799,6.6806,6.6812,6.6875,6.6893,6.6908,6.6705,6.6704,6.6703,0,0,6.5983,6.6034,6.6125,6.6175,6.6249,6.6277,6.6299,6.6371,6.6394,6.6501,6.6496,6.6564,6.6693,6.6741,6.6782,6.6916,6.6907,6.6938,6.6999,6.7063,6.7077,6.709,6.7136,6.7153,6.6949,6.6949,6.6949,0,6.6026,6.6148,6.6172,6.626,6.6307,6.6305,6.6397,6.6442,6.6535,6.6567,6.6542,6.6703,6.6748,6.6874,6.6907,6.6941,6.6964,6.693,6.7073,6.7087,6.7099,6.7143,6.7161,6.6953,6.6952,6.6952,6.6952,0,6.6196,6.628,6.6345,6.6437,6.6492,6.6581,6.6616,6.6668,6.6675,6.6704,6.6811,6.6865,6.6948,6.6978,6.6985,6.7105,6.7089,6.7069,6.7023,6.7119,6.7161,6.7179,6.6957,6.6956,6.6955,6.6954,0,0,6.6334,6.6438,6.6462,6.6503,6.6584,6.6648,6.6735,6.6818,6.6861,6.6925,6.6997,6.7105,6.7087,6.7133,6.7145,6.7201,6.7302,6.7173,6.7175,6.7194,6.7435,6.745,6.7469,6.7297,6.73,6.7303,6.7429,0,6.646,6.6618,6.6641,6.6779,6.6856,6.6854,6.693,6.6986,6.7015,6.7082,6.7114,6.719,6.716,6.7188,6.7243,6.7278,6.735,6.7269,6.7362,6.7365,6.7345,6.7492,6.7508,6.7624,6.7446,6.7448,6.7451,0,6.6628,6.6698,6.6844,6.6913,6.6946,6.7014,6.7091,6.7156,6.7218,6.7236,6.7287,6.7292,6.7379,6.733,6.7449,6.7394,6.7432,6.7455,6.746,6.7469,6.7413,6.7504,6.7662,6.768,6.7477,6.7475,6.7473,0,6.6713,6.6843,6.6947,6.6982,6.7066,6.7114,6.715,6.721,6.7257,6.7323,6.7354,6.7428,6.7468,6.7525,6.7548,6.751,6.7665,6.7618,6.768,6.768,6.7713,6.771,6.7879,6.7739,6.7738,6.7738,6.7738,0,6.685,6.6939,6.6987,6.7051,6.7149,6.7174,6.727,6.7304,6.7357,6.7426,6.7428,6.7491,6.7519,6.7586,6.7604,6.7699,6.7717,6.7732,6.7736,6.7732,6.773,6.7757,6.775,6.7743,6.7742,6.7741,6.774,0,6.6962,6.6998,6.7111,6.7181,6.72,6.727,6.7329,6.7389,6.7417,6.7504,6.7525,6.7569,6.7648,6.7677,6.7773,6.7785,6.7894,6.7892,6.7874,6.7875,6.7935,6.7929,6.8127,6.8154,6.7996,6.7998,6.7999,0,6.7047,6.7116,6.7194,6.7241,6.728,6.7356,6.7405,6.743,6.748,6.7556,6.7607,6.7686,6.7751,6.7876,6.7915,6.7987,6.7986,6.805,6.7996,6.799,6.7985,6.7981,6.7987,6.806,6.8061,6.8063,6.8064,0,6.7195,6.7209,6.7281,6.7358,6.7417,6.7479,6.7539,6.7576,6.7611,6.7666,6.7748,6.7799,6.7897,6.7974,6.8048,6.8083,6.8078,6.8081,6.8098,6.8095,6.8082,6.8089,6.7901,6.8076,6.8075,6.8074,6.8073,6.8073,6.7295,6.7356,6.742,6.75,6.7548,6.7603,6.7663,6.77,6.7769,6.7853,6.7863,6.795,6.8008,6.8108,6.8145,6.8212,6.8194,6.8221,6.8227,6.8233,6.8237,6.8072,6.8225,6.8225,6.8225,6.8225,6.8224,0,6.7442,6.7483,6.7556,6.7641,6.7702,6.7695,6.776,6.7812,6.7889,6.7945,6.8009,6.8102,6.8177,6.8221,6.8296,6.834,6.834,6.8359,6.8356,6.8363,6.8249,6.8226,6.8358,6.8358,6.8358,6.8358,6.8358,6.8358,6.7526,6.7628,6.7649,6.7773,6.7813,6.7901,6.7938,6.7988,6.8033,6.8138,6.8201,6.823,6.828,6.8358,6.8426,6.8436,6.8463,6.8484,6.8493,6.8385,6.8371,6.8358,6.8337,6.849,6.849,6.8601,6.8602,6.8603]}]]